User: anonymous   Login
Location: Daybis Observatory
(33.4273°N, 88.8061°W)
Time: 18:13:32
(UTC-06:00)
Language:

Coronas F rocket - Orbit

View from above orbital plane
View from above orbital plane
View from above satellite
View from above satellite

Ground track
Ground track

The orbit data is extracted from the following two-line orbital elements,

1 26874U 01032B   15062.58683780  .00020779  00000-0  24872-3 0  9993
2 26874 082.4660 070.0464 0013548 166.5305 193.6317 15.60700965761635
Epoch (UTC): 03 March 2015 14:05:02
Eccentricity: 0.0013548
inclination: 82.4660°
perigee height: 376 km
apogee height: 395 km
right ascension of ascending node: 70.0464°
argument of perigee: 166.5305°
revolutions per day: 15.60700965
mean anomaly at epoch: 193.6317°
orbit number at epoch: 76163

The dashed part of the orbit path shows where the satellite is in the earth's shadow,  

DLR